Concordia, KS

9:23 AM CDT on July 27, 2017 (GMT -0500)
Blosser Municipal

Weather History for KCNK - April, 2014

Change the Weather History Date:

Monday, April 28, 2014

  Actual Average Record
Temperature  
Mean Temperature 48 °F 57 °F  
Max Temperature 54 °F 69 °F 94 °F (1910)
Min Temperature 41 °F 46 °F 29 °F (1965)
Degree Days  
Heating Degree Days 17 9  
Month to date heating degree days 309 357  
Since 1 July heating degree days 5587 5248  
Cooling Degree Days 0 1  
Month to date cooling degree days 25 13  
Year to date cooling degree days 25 14  
Moisture  
Dew Point 40 °F    
Average Humidity 74    
Maximum Humidity 89    
Minimum Humidity 59    
Precipitation  
Precipitation 0.03 in 0.09 in 0.85 in (1917)
Month to date precipitation 1.00 2.25  
Year to date precipitation 2.42 5.63  
Snow  
Snow 0.00 in 0.00 in T in (1994)
Month to date snowfall T 0.5  
Year to date snowfall 16.9 13.7  
Since 1 July snowfall 23.2 20.2  
Snow Depth 0.00 in    
Sea Level Pressure  
Sea Level Pressure 29.33 in    
Wind  
Wind Speed 21 mph (West)    
Max Wind Speed 30 mph    
Max Gust Speed 37 mph    
Visibility 10 miles    
Events Rain    
T = Trace of Precipitation, MM = Missing Value Source: NWS Daily Summary

Daily Weather History Graph

Daily Weather History Graph

Search for Another Location

Airport or City:

Trip Planner

Search our weather history database for the weather conditions in past years. The results will help you decide how hot, cold, wet, or windy it might be!

Date:

Astronomy

Apr. 28, 2014 Rise Set
Actual Time 6:35 AM CDT 8:21 PM CDT
Civil Twilight 6:06 AM CDT 8:50 PM CDT
Nautical Twilight 5:31 AM CDT 9:25 PM CDT
Astronomical Twilight 4:54 AM CDT 10:03 PM CDT
Moon 6:13 AM CDT (4/28) 8:01 PM CDT (4/28)
Length of Visible Light 14h 44m
Length of Day
13h 46m
Waning Crescent, 0% of the Moon is Illuminated
Apr 28
Waning Crescent
Apr 29
New
May 6
First Quarter
May 14
Full
May 21
Last Quarter

Hourly Weather History & Observations

Time (CDT) Temp. Windchill Dew Point Humidity Pressure Visibility Wind Dir Wind Speed Gust Speed Precip Events Conditions
12:21 AM 55.0 °F - 39.0 °F 55% 29.24 in 7.0 mi WSW 10.4 mph - N/A   Scattered Clouds
12:55 AM 54.0 °F - 39.0 °F 57% 29.22 in 10.0 mi West 9.2 mph - N/A   Clear
1:55 AM 51.1 °F - 42.1 °F 71% 29.24 in 10.0 mi West 12.7 mph - N/A   Clear
2:55 AM 48.2 °F - 44.6 °F 87% 29.28 in 10.0 mi West 16.1 mph - N/A   Clear
3:21 AM 50.0 °F - 45.0 °F 83% 29.28 in 10.0 mi West 19.6 mph 27.6 mph N/A   Mostly Cloudy
3:55 AM 48.9 °F - 43.0 °F 80% 29.25 in 10.0 mi West 20.7 mph 33.4 mph N/A   Overcast
4:20 AM 46.9 °F - 41.0 °F 80% 29.29 in 10.0 mi West 19.6 mph 31.1 mph N/A   Scattered Clouds
4:55 AM 45.0 °F 38.5 °F 39.9 °F 82% 29.28 in 10.0 mi West 13.8 mph - N/A   Clear
5:55 AM 43.0 °F 35.1 °F 39.0 °F 86% 29.29 in 10.0 mi West 17.3 mph - N/A   Clear
6:55 AM 43.0 °F 36.4 °F 39.0 °F 86% 29.29 in 10.0 mi West 12.7 mph - N/A   Mostly Cloudy
7:33 AM 46.0 °F 39.0 °F 37.9 °F 73% 29.31 in 10.0 mi West 17.3 mph 23.0 mph N/A   Mostly Cloudy
7:55 AM 46.0 °F 39.0 °F 37.9 °F 73% 29.30 in 10.0 mi West 17.3 mph - N/A   Mostly Cloudy
8:06 AM 46.9 °F - 37.9 °F 71% 29.32 in 10.0 mi West 15.0 mph - N/A   Overcast
8:55 AM 46.9 °F - 37.0 °F 68% 29.31 in 10.0 mi West 21.9 mph 31.1 mph N/A   Overcast
9:08 AM 48.0 °F - 37.0 °F 66% 29.32 in 10.0 mi West 16.1 mph - N/A   Overcast
9:33 AM 48.0 °F - 37.0 °F 66% 29.32 in 10.0 mi West 21.9 mph - N/A   Overcast
9:55 AM 48.9 °F - 37.0 °F 64% 29.31 in 10.0 mi West 18.4 mph 25.3 mph N/A   Overcast
10:55 AM 48.0 °F - 37.9 °F 68% 29.32 in 10.0 mi WNW 17.3 mph 25.3 mph N/A   Overcast
11:55 AM 48.0 °F - 39.0 °F 71% 29.33 in 10.0 mi West 20.7 mph 29.9 mph N/A   Overcast
12:55 PM 50.0 °F - 39.0 °F 66% 29.32 in 10.0 mi West 19.6 mph 26.5 mph N/A   Overcast
1:55 PM 50.0 °F - 37.9 °F 63% 29.34 in 10.0 mi West 20.7 mph 29.9 mph N/A   Overcast
2:55 PM 51.1 °F - 37.9 °F 61% 29.35 in 10.0 mi West 24.2 mph 29.9 mph N/A   Overcast
3:55 PM 51.8 °F - 37.4 °F 58% 29.35 in 10.0 mi West 24.2 mph 33.4 mph N/A   Overcast
4:55 PM 51.1 °F - 39.0 °F 63% 29.37 in 10.0 mi WNW 26.5 mph 35.7 mph N/A   Overcast
5:02 PM 51.1 °F - 39.0 °F 63% 29.37 in 10.0 mi West 25.3 mph 35.7 mph N/A   Overcast
5:55 PM 50.0 °F - 39.9 °F 68% 29.39 in 10.0 mi WNW 26.5 mph 31.1 mph N/A   Overcast
6:55 PM 48.0 °F - 41.0 °F 77% 29.41 in 10.0 mi WNW 25.3 mph 36.8 mph N/A   Overcast
7:55 PM 46.0 °F 38.3 °F 41.0 °F 83% 29.43 in 10.0 mi WNW 20.7 mph 33.4 mph N/A   Overcast
8:55 PM 44.1 °F 35.9 °F 42.1 °F 93% 29.45 in 6.0 mi WNW 19.6 mph 34.5 mph 0.01 in Rain Light Rain
9:55 PM 44.1 °F 35.4 °F 41.0 °F 89% 29.48 in 10.0 mi WNW 21.9 mph 28.8 mph 0.02 in   Overcast
10:55 PM 43.0 °F 33.8 °F 39.9 °F 89% 29.49 in 10.0 mi WNW 23.0 mph 29.9 mph 0.00 in Rain Light Rain
11:55 PM 42.1 °F 32.6 °F 39.0 °F 89% 29.50 in 10.0 mi WNW 23.0 mph 28.8 mph 0.00 in Rain Light Rain